Вернуться в каталог

KUIPER-00533

АктивенСвязьLEO
NORAD 69605·PAYLOAD·🇺🇸 United States

Запущен Jun 17, 2026 с Guiana Space Centre

Loading…

Ближайшие Пролёты (ближайшие 24 часа)

TLE

СвежийSource: CelesTrak SupGP

Эпоха: Sep 14, 2026, 23:22 UTC

1 69605C 26140P   26257.97370370  .00001419  00000+0  18579-3 0  2571
2 69605  51.9019 336.1422 0000419  81.0250 319.4323 14.79920334    12

Отслеживайте KUIPER-00533 в реальном времени с AllMySat

Download on the App Store